星链-31241 (STARLINK-31241 )

导读 | 星芒AI

STARLINK-31241 是 SpaceX Starlink 项目中的一颗低轨通信卫星,属于第三代 Starlink 卫星(v1.5 或后续版本)。该卫星于 2023 年发射,部署在约 550 公里的轨道高度,用于提供全球范围内的高速互联网服务。它采用先进的推进系统和激光通信技术,以提高网络效率和减少延迟。作为 Starlink 卫星群的一部分,STARLINK-31241 支持偏远地区的宽带接入,提升全球互联网覆盖能力。

基本信息
目录编号:
59045
目录名称:
STARLINK-31241
国际标识:
2024-038Y
轨道中心:
EARTH
卫星名称:
星链-31241
卫星全名:
星链-31241 (STARLINK-31241 )
卫星状态:
在轨 (已飞行663 天)
发射日期:
2024-02-25 UTC
国别 :
美国 (US)
星等 :
--
轨道信息
数据来源 国际轨道数据
星历时间: 2025-12-18T23:55:21+0800
1天前
查看轨道信息
半长轴: 6861.137km
偏心率: 0.0001219
轨道倾角: 42.999°
近地点辐角 275.119°
升交点赤经 121.390°
平近点角 84.952°
近地点: 482.165km
远地点: 483.839km
周期: 94.266分钟
每日圈数: 15.275964
详细信息
固有亮度:
5
最大亮度:
0.3
卫星平台:
Starlink v2.0 mini
覆盖范围:
全球
运营商:
太空探索技术公司
运营商所在国:
美国
制造商(研发单位):
太空探索技术公司
制造商所在国:
美国
使用方式:
暂无
卫星简介
星链(Starlink)计划是由太空探索技术公司(SpaceX)提出的一个巨型低轨卫星互联网星座项目,计划在2019年至2024年间在太空搭建由约1.2万颗卫星组成的“星链”网络,其中1584颗将部署在地球上空550千米处的近地轨道,并从2020年开始工作。该卫星仍在工作。
2D轨道图
3D轨道图
轨道高度分析图
轨道倾角分析图
轨道综合分析图
查看轨道综合分析图